Location: Couloutre
(47.4081°N, 3.2259°E)
Time: 17:28:15
(UTC+00:00)

STARLINK-35 - Pass Details

Date: 27 February 2020
Orbit: 529 x 531 km, 53.0° (Epoch: 29 March)

Event Time Altitude Azimuth Distance (km) Brightness Sun altitude
Rises 19:18:16 0° 289° (WNW) 2,671 8.7 -19.3°
Reaches altitude 10° 19:20:36 10° 298° (WNW) 1,781 7.3 -19.7°
Maximum altitude 19:24:24 38° 8° (N) 820 4.4 -20.4°
Enters shadow 19:25:02 36° 31° (NNE) 862 4.4 -20.5°
